Location: Ottawa
(45.4167°N, 75.7000°W)
Time: 03:35:31
(UTC-04:00)

Envisat - Pass Details

Date: 09 October 2017
Orbit: 764 x 766 km, 98.2° (Epoch: 17 October)

Event Time Altitude Azimuth Distance (km) Brightness Sun altitude
Exits shadow 21:44:40 28° 257° (WSW) 1,418 4.7 -34.4°
Maximum altitude 21:45:04 28° 266° (W) 1,408 4.7 -34.4°
Drops below altitude 10° 21:49:26 10° 325° (NW) 2,311 6.1 -35.1°
Sets 21:52:04 0° 337° (NNW) 3,242 6.9 -35.5°
